"Pseudo-MPEC" for A11zBgl

Created 2026 Apr 11 7:35:03 UT using Find_Orb

Click here for an explanation of pseudo-MPECs

 
 Astrometry: 
     A11zBgl*0C2026 04 05.85811908 29 26.030-43 20 51.83   ~467K 15.60oVNEOCPM22
     A11zBgl 0C2026 04 05.86090308 28 46.606-43 17 48.19   ~467K 15.60oVNEOCPM22
     A11zBgl 0C2026 04 05.86688308 27 28.937-43 11 38.83   ~467K 15.81oVNEOCPM22
     A11zBgl 0C2026 04 05.88431908 24 25.560-42 56 17.38   ~467K 16.13oVNEOCPM22

Station data:
(M22) ATLAS South Africa, Sutherland  (S32.380156 E20.810590)  South Africa.
   Observers L. Denneau, R. Siverd, J. Tonry, H. Weiland. Measurers L.
   Denneau, N. Erasmus, A. Fitzsimmons, J. Robinson, R. Siverd, J. Tonry, H.
   Weiland. 0.5-m f/2.0 Schmidt + CCD.

Orbital elements:  A11zBgl
   Perigee 2026 Apr 5.748987 +/- 0.00211 TT = 17:58:32.4 (JD 2461136.248987)
Epoch 2026 Apr  6.0 TT = JDT 2461136.5                           AutoNEOCP
q 16022.17050 +/- 1330              (J2000 equator)
H   28.00 G 0.15                    Peri.  197.545717 +/- 1.2
                                    Node    60.663436 +/- 0.7
e  17.24051867 +/- 3.83             Incl.  134.645201 +/- 0.17
From 4 observations 2026 Apr. 5 (37.7 min); mean residual 0".13
Residuals in arcseconds: 
260405 M22  .15+  .11-    260405 M22  .09+  .08-    
260405 M22  .24-  .18+    260405 M22  .01-  .01+    

Ephemerides (geocentric):
Date (UTC) HH   RA             Dec           delta  r     elong  mag " sig PA
---- --------  ------------   ------------  ------ ------ -----  --- --------
2026 04 11 08  08 09 33.226   -41 40 28.61  .06481 1.0209 105.1 24.6  172 128
2026 04 11 09  08 09 33.335   -41 40 26.97  .06529 1.0210 105.1 24.6  172 128
2026 04 11 10  08 09 33.450   -41 40 25.35  .06577 1.0212 105.0 24.6  172 128
2026 04 11 11  08 09 33.572   -41 40 23.73  .06625 1.0213 105.0 24.7  172 128
2026 04 11 12  08 09 33.699   -41 40 22.13  .06674 1.0215 105.0 24.7  172 128
2026 04 11 13  08 09 33.832   -41 40 20.55  .06722 1.0216 105.0 24.7  172 128
2026 04 11 14  08 09 33.970   -41 40 18.97  .06770 1.0217 105.0 24.7  172 128
2026 04 11 15  08 09 34.115   -41 40 17.41  .06818 1.0219 105.0 24.7  172 128
2026 04 11 16  08 09 34.264   -41 40 15.85  .06866 1.0220 104.9 24.7  172 128
2026 04 11 17  08 09 34.420   -41 40 14.31  .06915 1.0222 104.9 24.7  172 128
2026 04 11 18  08 09 34.581   -41 40 12.78  .06963 1.0223 104.9 24.8  172 128
2026 04 11 19  08 09 34.747   -41 40 11.26  .07011 1.0225 104.9 24.8  172 128
2026 04 11 20  08 09 34.919   -41 40 09.75  .07059 1.0226 104.9 24.8  172 128
2026 04 11 21  08 09 35.096   -41 40 08.26  .07107 1.0228 104.9 24.8  172 128
2026 04 11 22  08 09 35.278   -41 40 06.77  .07156 1.0229 104.8 24.8  171 128
2026 04 11 23  08 09 35.466   -41 40 05.29  .07204 1.0231 104.8 24.8  171 128
2026 04 12 00  08 09 35.658   -41 40 03.82  .07252 1.0232 104.8 24.8  171 128
2026 04 12 01  08 09 35.856   -41 40 02.37  .07300 1.0233 104.8 24.9  171 128
2026 04 12 02  08 09 36.059   -41 40 00.92  .07348 1.0235 104.8 24.9  171 128
2026 04 12 03  08 09 36.267   -41 39 59.48  .07396 1.0236 104.7 24.9  171 128
2026 04 12 04  08 09 36.479   -41 39 58.06  .07445 1.0238 104.7 24.9  171 128
2026 04 12 05  08 09 36.697   -41 39 56.64  .07493 1.0239 104.7 24.9  171 128
2026 04 12 06  08 09 36.920   -41 39 55.23  .07541 1.0241 104.7 24.9  171 128
2026 04 12 07  08 09 37.147   -41 39 53.83  .07589 1.0242 104.7 24.9  171 128
2026 04 12 08  08 09 37.379   -41 39 52.44  .07637 1.0244 104.7 25.0  171 128
2026 04 12 09  08 09 37.616   -41 39 51.06  .07685 1.0245 104.6 25.0  171 128
2026 04 12 10  08 09 37.858   -41 39 49.69  .07734 1.0246 104.6 25.0  171 128
2026 04 12 11  08 09 38.104   -41 39 48.32  .07782 1.0248 104.6 25.0  171 128
2026 04 12 12  08 09 38.355   -41 39 46.97  .07830 1.0249 104.6 25.0  171 128
2026 04 12 13  08 09 38.611   -41 39 45.62  .07878 1.0251 104.6 25.0  171 128
2026 04 12 14  08 09 38.871   -41 39 44.28  .07926 1.0252 104.5 25.0  171 128
2026 04 12 15  08 09 39.136   -41 39 42.95  .07974 1.0254 104.5 25.1  170 128
2026 04 12 16  08 09 39.405   -41 39 41.63  .08023 1.0255 104.5 25.1  170 128
2026 04 12 17  08 09 39.678   -41 39 40.32  .08071 1.0257 104.5 25.1  170 128
2026 04 12 18  08 09 39.956   -41 39 39.01  .08119 1.0258 104.5 25.1  170 128
2026 04 12 19  08 09 40.239   -41 39 37.72  .08167 1.0259 104.5 25.1  170 128
2026 04 12 20  08 09 40.526   -41 39 36.43  .08215 1.0261 104.4 25.1  170 128
2026 04 12 21  08 09 40.817   -41 39 35.15  .08263 1.0262 104.4 25.1  170 128
2026 04 12 22  08 09 41.112   -41 39 33.87  .08311 1.0264 104.4 25.1  170 128
2026 04 12 23  08 09 41.412   -41 39 32.61  .08359 1.0265 104.4 25.2  170 128
2026 04 13 00  08 09 41.716   -41 39 31.35  .08408 1.0267 104.4 25.2  170 128
2026 04 13 01  08 09 42.024   -41 39 30.10  .08456 1.0268 104.3 25.2  170 128
2026 04 13 02  08 09 42.337   -41 39 28.86  .08504 1.0269 104.3 25.2  170 128
2026 04 13 03  08 09 42.653   -41 39 27.62  .08552 1.0271 104.3 25.2  170 128
2026 04 13 04  08 09 42.974   -41 39 26.39  .08600 1.0272 104.3 25.2  170 128
2026 04 13 05  08 09 43.298   -41 39 25.17  .08648 1.0274 104.3 25.2  170 128
2026 04 13 06  08 09 43.627   -41 39 23.96  .08696 1.0275 104.3 25.2  170 128
2026 04 13 07  08 09 43.960   -41 39 22.76  .08744 1.0277 104.2 25.3  170 128